Weather History for KCDC - October, 2012

Change the Weather History Date:

Wednesday, October 31, 2012

  Actual Average Record
Temperature  
Mean Temperature 52 °F 44 °F  
Max Temperature 73 °F 59 °F 73 °F (1965)
Min Temperature 30 °F 29 °F 5 °F (1991)
Degree Days  
Heating Degree Days 13 21  
Month to date heating degree days 387 476  
Since 1 July heating degree days 459 619  
Cooling Degree Days 0 0  
Month to date cooling degree days 0 0  
Year to date cooling degree days 715 588  
Growing Degree Days 2 (Base 50)    
Moisture  
Dew Point 20 °F    
Average Humidity 40    
Maximum Humidity 69    
Minimum Humidity 11    
Precipitation  
Precipitation 0.00 in 0.05 in 0.39 in (1957)
Month to date precipitation 0.97 1.34  
Year to date precipitation 10.83 9.54  
Sea Level Pressure  
Sea Level Pressure 30.06 in    
Wind  
Wind Speed 5 mph (SW)    
Max Wind Speed 20 mph    
Max Gust Speed 26 mph    
Visibility 10 miles    
Events      
T = Trace of Precipitation, MM = Missing Value Source: NWS Daily Summary

Daily Weather History Graph

Daily Weather History Graph

Search for Another Location

Airport or City:

Trip Planner

Search our weather history database for the weather conditions in past years. The results will help you decide how hot, cold, wet, or windy it might be!

Date:

Astronomy

Oct. 31, 2012 Rise Set
Actual Time 7:57 AM MDT 6:34 PM MDT
Civil Twilight 7:30 AM MDT 7:01 PM MDT
Nautical Twilight 6:59 AM MDT 7:32 PM MDT
Astronomical Twilight 6:28 AM MDT 8:02 PM MDT
Moon 7:50 PM MDT (10/31) 9:39 AM MDT (10/31)
Length of Visible Light 11h 31m
Length of Day
10h 37m
Full, 97% of the Moon is Illuminated
Oct 31
Full
Nov 6
Last Quarter
Nov 13
New
Nov 20
First Quarter
Nov 28
Full

Hourly Weather History & Observations

Time (MDT) Temp. Windchill Dew Point Humidity Pressure Visibility Wind Dir Wind Speed Gust Speed Precip Events Conditions
12:53 AM 41.0 °F 37.1 °F 23.0 °F 49% 30.09 in 10.0 mi SW 5.8 mph - N/A   Clear
1:53 AM 37.0 °F - 24.1 °F 59% 30.09 in 10.0 mi Calm Calm - N/A   Clear
2:53 AM 37.9 °F - 24.1 °F 57% 30.08 in 10.0 mi Calm Calm - N/A   Clear
3:53 AM 36.0 °F - 21.9 °F 57% 30.07 in 10.0 mi Calm Calm - N/A   Clear
4:53 AM 34.0 °F - 23.0 °F 64% 30.07 in 10.0 mi Calm Calm - N/A   Clear
5:53 AM 34.0 °F 28.8 °F 23.0 °F 64% 30.09 in 10.0 mi SSW 5.8 mph - N/A   Clear
6:53 AM 32.0 °F - 23.0 °F 69% 30.12 in 10.0 mi Calm Calm - N/A   Clear
7:53 AM 37.0 °F - 23.0 °F 57% 30.13 in 10.0 mi Calm Calm - N/A   Clear
8:53 AM 41.0 °F - 26.1 °F 55% 30.14 in 10.0 mi Calm Calm - N/A   Clear
9:53 AM 48.0 °F - 27.0 °F 44% 30.12 in 10.0 mi Calm Calm - N/A   Clear
10:53 AM 60.1 °F - 26.1 °F 27% 30.09 in 10.0 mi ENE 3.5 mph - N/A   Clear
11:53 AM 64.9 °F - 25.0 °F 22% 30.08 in 10.0 mi WSW 5.8 mph - N/A   Clear
1:53 PM 73.0 °F - 19.0 °F 13% 30.01 in 10.0 mi SW 12.7 mph 21.9 mph N/A   Clear
2:53 PM 72.0 °F - 16.0 °F 12% 29.98 in 10.0 mi SW 19.6 mph 24.2 mph N/A   Clear
3:53 PM 71.1 °F - 15.1 °F 12% 29.98 in 10.0 mi SW 16.1 mph 24.2 mph N/A   Clear
4:53 PM 70.0 °F - 12.9 °F 11% 29.99 in 10.0 mi SW 16.1 mph 24.2 mph N/A   Clear
5:53 PM 66.9 °F - 14.0 °F 13% 29.99 in 10.0 mi WSW 10.4 mph - N/A   Clear
6:53 PM 59.0 °F - 14.0 °F 17% 30.04 in 10.0 mi SW 4.6 mph - N/A   Clear
7:53 PM 54.0 °F - 15.1 °F 22% 30.06 in 10.0 mi Calm Calm - N/A   Clear
9:53 PM 48.0 °F - 19.0 °F 32% 30.04 in 10.0 mi Calm Calm - N/A   Clear
10:53 PM 48.0 °F - 18.0 °F 30% 30.00 in 10.0 mi SSE 5.8 mph - N/A   Clear
11:53 PM 45.0 °F 40.1 °F 18.0 °F 34% 30.00 in 10.0 mi SSE 9.2 mph - N/A   Clear